This demonstration page uses our WeatherBlox Daily Observations layout. Learn more.

Left ArrowRight Arrow

39.08367, -84.50855

Hourly Observations for November 29, 2021

Temp ( °F °C ) Dew Point ( °F °C ) Humidity (%) Winds ( mph kmh ) Pressure ( in mb ) Visibility ( mi km ) Precip ( " mm )
12:53 am 00:53 Clear 32 undefined 19 -7.2 59 59 WNW 8 13 30.16 1021 10 16 N/A
1:53 am 01:53 Clear 31 -0.6 18 -7.8 59 59 WNW 9 15 30.16 1021 10 16 N/A
2:53 am 02:53 Clear 27 -2.8 21 -6.1 78 78 SE 3 6 30.17 1022 10 16 N/A
3:53 am 03:53 Clear 27 -2.8 19 -7.2 72 72 N N/A 30.18 1022 10 16 N/A
4:53 am 04:53 Clear 24 -4.4 20 -6.7 84 84 ESE 3 6 30.19 1022 10 16 N/A
5:53 am 05:53 Clear 23 -5 18 -7.8 81 81 N N/A 30.21 1023 10 16 N/A
6:53 am 06:53 Clear 23 -5 20 -6.7 88 88 N N/A 30.21 1023 10 16 N/A
7:53 am 07:53 Sunny 23 -5 20 -6.7 88 88 N N/A 30.23 1024 10 16 N/A
8:53 am 08:53 Sunny 27 -2.8 24 -4.4 89 89 N N/A 30.23 1024 10 16 N/A
9:53 am 09:53 Sunny 32 undefined 23 -5 69 69 S 3 6 30.22 1023 10 16 N/A
10:53 am 10:53 Sunny 38 3.3 21 -6.1 51 51 S 5 7 30.23 1024 10 16 N/A
11:53 am 11:53 Sunny 42 5.6 19 -7.2 40 40 SW 7 11 30.20 1023 10 16 N/A
12:53 pm 12:53 Sunny 44 6.7 16 -8.9 32 32 WSW 10 17 30.16 1022 10 16 N/A
1:53 pm 13:53 Sunny 44 6.7 13 -10.6 28 28 SSW 8 13 30.14 1021 10 16 N/A
2:53 pm 14:53 Sunny 45 7.2 14 -10 29 29 SSW 8 13 30.11 1020 10 16 N/A
3:53 pm 15:53 Mostly Cloudy 44 6.7 16 -8.9 32 32 SSW 10 17 30.10 1019 10 16 N/A
4:53 pm 16:53 Partly Cloudy 40 4.4 17 -8.3 40 40 SSW 12 19 30.08 1019 10 16 N/A
5:53 pm 17:53 Mostly Cloudy 39 3.9 18 -7.8 43 43 SSW 7 11 30.08 1019 10 16 N/A
6:53 pm 18:53 Cloudy 39 3.9 21 -6.1 48 48 S 5 7 30.08 1019 10 16 N/A
7:53 pm 19:53 Cloudy 41 5 17 -8.3 38 38 S 10 17 30.04 1017 10 16 N/A
8:53 pm 20:53 Partly Cloudy 38 3.3 18 -7.8 44 44 SSW 8 13 30.03 1017 10 16 N/A
9:53 pm 21:53 Mostly Cloudy 36 2.2 19 -7.2 50 50 S 7 11 30.02 1017 10 16 N/A
10:53 pm 22:53 Mostly Cloudy 36 2.2 19 -7.2 50 50 N N/A 30.02 1017 10 16 N/A
11:53 pm 23:53 Partly Cloudy 34 1.1 21 -6.1 59 59 SW 6 9 30.01 1016 10 16 N/A

Powered by AerisWeather